Location: Cornospital
(48.0620°N, 3.3837°W)
Time: 15:09:58
(UTC+00:00)

Daily predictions for brighter satellites

Satellite Brightness Start Highest point End
(mag) Time Altitude Azimuth Time Altitude Azimuth Time Altitude Azimuth
Meteor 1-21 4.5 18:11:49 10° NNW 18:17:34 82° W 18:23:13 10° S
Cosmos 1805 3.9 18:17:37 10° SSE 18:21:07 33° E 18:24:39 10° NNE
SL-14 R/B 4.0 18:17:41 10° N 18:21:18 33° ENE 18:24:56 10° SE
Cosmos 2360 4.2 18:15:54 10° SSW 18:21:37 80° ESE 18:27:22 10° NNE
Cosmos 1674 2.7 18:19:00 10° N 18:22:46 84° W 18:26:29 10° S
Cosmos 468 Rocket 4.2 18:19:28 10° NNW 18:24:39 80° WSW 18:29:49 10° SSE
SKYMED 3 4.4 18:22:35 10° NNE 18:26:42 63° ESE 18:30:46 10° S
ATLAS 2AS CENTAUR R/B 4.4 18:21:30 10° W 18:27:57 29° NNW 18:34:09 10° NE
Cosmos 2082 3.7 18:23:11 10° NNW 18:28:57 79° ENE 18:34:41 10° SSE
Cosmos 540 Rocket 3.4 18:24:57 10° NNW 18:30:06 85° ENE 18:35:13 10° SSE
ISS -3.8 18:29:14 10° WNW 18:32:37 82° NNE 18:35:59 10° ESE
HJ-1C 3.8 18:30:48 10° SE 18:33:40 35° ENE 18:36:33 10° N
USA 229 DEB 4.2 18:26:46 10° NW 18:34:09 80° SW 18:42:01 10° SSE
USA 229 4.1 18:26:52 10° NW 18:34:14 80° SW 18:42:08 10° SSE
Cosmos 1697 Rocket 2.9 18:29:57 10° SSW 18:35:34 81° WNW 18:41:15 10° NNE
Cosmos 1766 4.3 18:33:22 10° SE 18:36:36 25° E 18:39:52 10° NNE
Cosmos 2285 Rocket 4.5 18:36:33 10° NNW 18:42:33 42° ENE 18:48:33 10° SE
BREEZE-M R/B 4.4 18:41:29 10° SSE 18:42:43 14° SE 18:43:25 13° ESE
Okean O Rocket 1.8 18:39:15 10° SE 18:43:28 51° ENE 18:47:42 10° N
Cosmos 841 Rocket 3.4 18:39:58 10° NNW 18:45:10 75° ENE 18:50:19 10° SSE
Timation 2 Rocket 4.0 18:41:04 10° NNW 18:47:35 70° ENE 18:53:45 10° SE
Cosmos 1809 Rocket 4.4 18:42:01 10° S 18:47:57 61° E 18:53:57 10° NNE
Nadezhda 4 Rocket 4.3 18:42:39 10° SSE 18:48:34 43° E 18:54:28 10° NNE
Cosmos 1733 3.0 18:46:16 10° S 18:50:00 80° ESE 18:53:46 10° NNE
Cosmos 1850 Rocket 4.0 18:45:23 10° S 18:50:31 64° ESE 18:55:45 10° NNE
Cosmos 1674 Rocket 3.6 18:47:09 10° N 18:51:30 60° ENE 18:55:53 10° SSE
PSLV R/B 4.3 18:48:20 10° S 18:51:59 59° WSW 18:55:38 10° NNW
OBJECT-B 1.8 18:52:19 18° ENE 18:52:31 18° ENE 18:54:23 10° NNE
YAOGAN 1 2.5 18:48:28 10° SSE 18:52:47 75° ENE 18:57:07 10° N
Cosmos 1626 4.0 18:50:47 10° NNW 18:54:06 34° W 18:57:25 10° SSW
SKYMED 2 4.4 18:52:06 10° N 18:56:22 55° WNW 19:00:36 10° SSW
USA 186 3.1 18:57:27 19° E 18:58:41 23° ENE 19:01:25 10° NNE
Cosmos 2227 Rocket 4.3 18:56:10 10° NW 19:00:58 29° WSW 19:05:45 10° SSW
Cosmos 1470 3.9 19:02:47 20° ESE 19:03:28 21° E 19:06:25 10° NE
Spot 1 4.2 18:59:16 10° NNE 19:03:32 75° WNW 19:07:37 10° SSW
Cosmos 1025 Rocket 4.4 19:00:26 10° NNE 19:03:39 20° ENE 19:04:35 19° E
DMSP B5D1-3 4.5 19:00:50 10° NNE 19:05:54 61° ESE 19:10:57 10° S
IGS 5A 4.3 19:06:01 19° ESE 19:08:12 31° ENE 19:11:51 10° N
Cosmos 2322 Rocket 3.3 19:04:34 10° SE 19:08:37 20° E 19:12:42 10° NE
CSL-04 Rocket 4.1 19:04:36 13° SE 19:09:02 40° ENE 19:14:03 10° N
ARGOS Delta rocket 4.1 19:03:48 10° N 19:09:10 84° WNW 19:14:14 10° SSW
CZ-4B R/B 3.5 19:04:14 10° S 19:09:35 72° WSW 19:15:05 10° NNW
USA 215 3.8 19:04:08 10° NE 19:10:31 58° NNW 19:16:53 10° W
USA-17 4.5 19:11:14 10° NW 19:14:26 64° NE 19:16:28 25° ESE
IRIDIUM 104 4.2 19:10:41 10° S 19:15:52 76° E 19:21:07 10° N
Cosmos 1980 Rocket 2.3 19:10:39 10° SSW 19:16:17 77° WNW 19:21:56 10° NNE
Cosmos 1975 Rocket 4.0 19:13:14 10° N 19:17:05 28° ENE 19:18:06 26° E
BREEZE-M DEB (TANK) 4.3 19:13:33 10° SW 19:18:25 75° SSE 19:40:25 10° ENE
Cosmos 2221 Rocket 4.4 19:15:09 10° NNW 19:19:35 54° W 19:23:59 10° S
Cosmos 1378 Rocket 3.8 19:15:39 10° NNW 19:20:03 72° W 19:24:22 10° S
Cosmos 1741 Rocket 4.1 19:14:50 10° SSW 19:20:08 79° WNW 19:25:26 10° NNE
Meteor 2-10 4.3 19:15:35 10° SSW 19:21:14 78° WNW 19:26:46 10° N
Cosmos 2208 Rocket 4.4 19:16:38 10° NNW 19:21:49 47° ENE 19:24:47 24° ESE
Gbstr 26 Del rocket 4.5 19:14:48 10° SW 19:22:21 72° SSE 19:29:16 15° ENE
SJ-6B 2.9 19:23:20 30° SE 19:24:43 46° ENE 19:28:21 10° N
IRIDIUM 114 4.3 19:19:48 10° S 19:25:01 90° SSE 19:30:17 10° N
Feng Yun 1-1 Rocket 4.2 19:20:10 10° SSE 19:25:41 84° WSW 19:31:09 10° NNW
CZ-4 R/B 1.8 19:22:30 10° S 19:26:39 68° WSW 19:30:51 10° NNW
Cosmos 1092 Rocket 4.2 19:20:41 10° SSE 19:26:41 48° E 19:32:40 10° NNE
Cosmos 2369 4.2 19:21:07 10° SW 19:26:47 62° WNW 19:32:28 10° NNE
Resurs 01 Rocket 3.0 19:28:47 21° ENE 19:28:47 21° ENE 19:32:00 10° NNE
Cosmos 2084 4.5 19:25:17 10° WSW 19:28:53 40° NW 19:32:32 10° NNE
Cosmos 1814 Rocket 4.0 19:24:23 10° NNW 19:29:42 90° SW 19:34:19 13° SSE
USA 81 4.4 19:25:47 10° N 19:30:50 43° ENE 19:33:21 26° SE
Cosmos 1733 Rocket 4.5 19:27:37 10° SW 19:31:48 41° WNW 19:36:02 10° N
Cosmos 2278 3.6 19:27:56 10° SSW 19:33:38 84° ESE 19:39:21 10° NNE
IRIDIUM 103 4.5 19:28:58 10° S 19:34:11 76° W 19:39:26 10° N
Meteor 1-12 Rocket 4.3 19:28:21 10° S 19:34:20 81° E 19:40:24 10° NNE
SL-16 R/B 2.4 19:31:01 10° S 19:36:22 45° ESE 19:41:45 10° NE
Cosmos 1437 Rocket 2.5 19:34:34 10° S 19:38:17 68° E 19:42:01 10° NNE
Meteor 1-24 Rocket 3.5 19:34:03 10° N 19:39:19 62° ENE 19:42:24 25° SSE
Cosmos 1844 Rocket 3.2 19:35:33 10° NNW 19:40:56 41° NE 19:42:36 33° E
Landsat 7 4.0 19:40:43 37° ESE 19:42:06 49° ENE 19:46:40 10° N
SL-4 R/B 2.3 19:38:26 10° WNW 19:42:57 79° SSW 19:44:28 42° SE
Cosmos 1726 3.5 19:42:02 10° SW 19:45:28 39° WNW 19:48:56 10° N
Cosmos 2278 Rocket 4.3 19:45:01 10° N 19:47:09 12° NNE 19:48:41 11° NE
deb Chang Zheng 4 4.0 19:47:32 39° ENE 19:47:32 39° ENE 19:51:12 10° N
Resurs 1-3 3.6 19:46:55 46° ESE 19:47:55 59° ENE 19:52:15 10° N
Okean-O 2.5 19:47:39 36° SSE 19:49:26 76° ENE 19:53:53 10° N
Meteor 1-22 Rocket 4.0 19:47:00 10° S 19:52:21 71° E 19:57:56 10° NNE
Cosmos 2263 Rocket 3.5 19:53:26 10° NW 19:58:41 39° WSW 20:03:55 10° S
SPOT 1/Viking Rocket 3.9 20:00:54 43° ENE 20:01:02 43° ENE 20:05:54 10° N
Cosmos 1627 Rocket 4.3 19:57:24 10° S 20:03:30 78° E 20:09:39 10° NNE
IRS-1C Rocket 4.0 20:01:23 30° SSE 20:04:05 87° WSW 20:09:23 10° NNW
Cosmos 1844 3.8 20:00:24 10° NNW 20:05:51 52° ENE 20:06:33 49° E
MOS 1 4.4 20:06:55 49° E 20:07:37 52° ENE 20:13:07 10° N
Cosmos 1428 Rocket 4.4 20:01:59 10° S 20:08:10 88° WNW 20:14:27 10° N
ISS -1.7 20:06:22 10° W 20:08:51 22° SW 20:08:51 22° SW
Cosmos 2195 Rocket 4.5 20:03:01 10° S 20:09:14 84° W 20:15:34 10° N
Landsat 5 3.9 20:05:13 10° N 20:09:42 69° WNW 20:14:08 10° SSW
Cosmos 968 Rocket 3.5 20:04:35 10° SSW 20:09:50 82° WNW 20:15:07 10° NNE
Terra 4.2 20:11:36 11° NNE 20:11:36 11° NNE 20:12:01 10° NNE
Cosmos 2292 Rocket 4.4 20:07:43 10° SSW 20:13:09 55° W 20:17:17 10° N
Meteor 2-5 Rocket 4.1 20:09:36 10° NNW 20:15:05 62° W 20:18:56 19° S
Okean O Rocket 4.2 20:17:01 10° SW 20:20:05 19° W 20:23:11 10° NW
ATLAS 2AS CENTAUR R/B 4.5 20:15:33 10° NW 20:21:20 24° N 20:25:16 15° NE
H-2A R/B 3.2 20:22:53 42° N 20:22:53 42° N 20:25:33 10° NNW
OBJECT-B 3.5 20:23:09 15° WNW 20:23:09 15° WNW 20:24:16 10° NW
Cosmos 1782 Rocket 4.1 20:22:08 21° SSW 20:24:50 58° WNW 20:29:10 10° N
Cosmos 2026 Rocket 4.0 20:20:23 10° SSW 20:26:26 74° W 20:32:31 10° N
Ariane Rocket 3.8 20:28:09 39° NNE 20:28:09 39° NNE 20:31:54 10° N
USA 186 4.1 20:30:37 23° WSW 20:30:54 23° W 20:33:39 10° NW
Cosmos 1553 Rocket 3.9 20:27:22 10° N 20:33:45 85° E 20:35:01 61° SSE
NOSS 3-4 (A) 4.4 20:27:30 10° NW 20:33:46 40° NE 20:35:00 38° ENE
NOSS 3-4 (C) 4.4 20:27:36 10° NW 20:33:51 40° NE 20:35:05 37° ENE
Cosmos 1470 4.4 20:37:52 25° WSW 20:39:14 32° WNW 20:42:43 10° N
Cosmos 1025 Rocket 4.0 20:37:22 10° NNW 20:41:28 44° W 20:41:28 44° W
Cosmos 2237 4.2 20:38:35 10° SSW 20:44:17 79° WNW 20:50:02 10° NNE
Cosmos 2322 Rocket 2.3 20:46:23 10° SW 20:52:04 72° WNW 20:57:48 10° NNE
USA 215 4.2 20:50:11 28° NE 20:52:54 41° N 20:58:55 10° WNW
IRS-1A Rocket 4.4 20:57:31 75° WNW 20:57:31 75° WNW 21:03:03 10° NNW
Resurs 01 Rocket 3.2 21:06:21 34° NW 21:06:21 34° NW 21:09:10 10° NNW
USA 281 3.6 21:12:38 51° NNE 21:12:38 51° NNE 21:18:06 10° NNW
SL-16 R/B 3.6 21:15:24 10° WSW 21:20:35 36° NW 21:25:49 10° NNE
Cosmos 1844 Rocket 3.9 21:19:35 10° NW 21:24:17 37° W 21:24:17 37° W
Cosmos 2278 Rocket 3.7 21:27:28 10° NNW 21:30:30 28° N 21:30:30 28° N
Cosmos 1943 Rocket 4.3 21:33:52 10° N 21:35:56 17° NNE 21:35:56 17° NNE
Terra 4.3 21:50:30 18° NNW 21:50:30 18° NNW 21:51:40 10° NNW
Cosmos 2360 Rocket 4.4 22:12:27 20° N 22:12:27 20° N 22:14:26 10° NNE
ATLAS 2AS CENTAUR R/B 3.9 22:07:28 10° NW 22:12:40 37° N 22:12:40 37° N
USA 215 4.5 22:37:32 36° NNW 22:37:32 36° NNW 22:41:30 10° NW
